When you browse on this site, cookies collect data to enhance your experience and personalize the content and advertising you see.
Visit our Privacy Policy to learn more. By continuing to use the site, you agree to this use of cookies and data.
  • In United Kingdom
  • List of Countries
  • For 7 days
  • Water Temperature
  • Satellite Maps
  • Weather Map
  • Weather Widgets
  • user-avatar
    Login

    Hourly Weather Makoua

    Today, 27 June, Thursday

    Time Temperature Precipitation Wind Pressure Humidity
    00:00 +25°C° 0 mm 2 mps 728 mmHg 83%
    01:00 +24°C° 0 mm 2 mps 727 mmHg 85%
    02:00 +24°C° 0 mm 1 mps 727 mmHg 87%
    03:00 +24°C° 0 mm 1 mps 727 mmHg 88%
    04:00 +23°C° 0 mm 1 mps 727 mmHg 89%
    05:00 +24°C° 0 mm 2 mps 727 mmHg 88%
    06:00 +24°C° 0 mm 2 mps 727 mmHg 86%
    07:00 +24°C° 0 mm 2 mps 728 mmHg 84%
    08:00 +26°C° 0 mm 2 mps 728 mmHg 75%
    09:00 +28°C° 0 mm 2 mps 729 mmHg 66%
    10:00 +31°C° 0 mm 2 mps 729 mmHg 57%
    11:00 +32°C° 0 mm 2 mps 728 mmHg 52%
    12:00 +33°C° 0 mm 1 mps 728 mmHg 48%
    13:00 +35°C° 0 mm 1 mps 727 mmHg 43%
    14:00 +34°C° 0 mm 1 mps 727 mmHg 45%
    15:00 +33°C° 0 mm 1 mps 726 mmHg 47%
    16:00 +33°C° 0 mm 1 mps 725 mmHg 49%
    17:00 +29°C° 0 mm 0 mps 726 mmHg 54%
    18:00 +27°C° 0 mm 0 mps 726 mmHg 60%
    19:00 +26°C° 0 mm 0 mps 726 mmHg 65%
    20:00 +25°C° 0 mm 0 mps 726 mmHg 66%
    21:00 +25°C° 0 mm 0 mps 727 mmHg 68%
    22:00 +25°C° 0 mm 0 mps 727 mmHg 69%
    23:00 +24°C° 0 mm 0 mps 727 mmHg 70%

    Tomorrow, 28 June, Friday

    Time Temperature Precipitation Wind Pressure Humidity
    00:00 +24°C° 0 mm 0 mps 727 mmHg 70%
    01:00 +26°C° 0 mm 1 mps 727 mmHg 71%
    02:00 +25°C° 0 mm 1 mps 727 mmHg 73%
    03:00 +25°C° 0 mm 1 mps 726 mmHg 75%
    04:00 +24°C° 0 mm 1 mps 726 mmHg 77%
    05:00 +24°C° 0 mm 1 mps 727 mmHg 76%
    06:00 +25°C° 0 mm 1 mps 727 mmHg 76%
    07:00 +25°C° 0 mm 1 mps 728 mmHg 76%
    08:00 +27°C° 0 mm 1 mps 728 mmHg 68%
    09:00 +29°C° 0 mm 1 mps 728 mmHg 61%
    10:00 +31°C° 0 mm 2 mps 728 mmHg 53%
    11:00 +33°C° 0 mm 1 mps 728 mmHg 48%
    12:00 +34°C° 0 mm 1 mps 727 mmHg 43%
    13:00 +36°C° 0 mm 1 mps 727 mmHg 39%
    14:00 +35°C° 0 mm 1 mps 726 mmHg 39%
    15:00 +33°C° 0 mm 0 mps 725 mmHg 40%
    16:00 +32°C° 0 mm 0 mps 725 mmHg 41%
    17:00 +31°C° 0 mm 0 mps 725 mmHg 46%
    18:00 +29°C° 0 mm 0 mps 725 mmHg 51%
    19:00 +27°C° 0 mm 0 mps 726 mmHg 56%
    20:00 +26°C° 0 mm 0 mps 726 mmHg 59%
    21:00 +28°C° 0 mm 1 mps 726 mmHg 63%
    22:00 +27°C° 0 mm 1 mps 727 mmHg 66%
    23:00 +26°C° 0 mm 1 mps 727 mmHg 68%

    Day after tomorrow, 29 June, Saturday

    Time Temperature Precipitation Wind Pressure Humidity
    00:00 +26°C° 0 mm 1 mps 726 mmHg 70%
    01:00 +26°C° 0 mm 1 mps 726 mmHg 72%
    02:00 +25°C° 0 mm 1 mps 726 mmHg 74%
    03:00 +25°C° 0 mm 1 mps 726 mmHg 76%
    04:00 +25°C° 0 mm 1 mps 726 mmHg 77%
    05:00 +25°C° 0 mm 1 mps 726 mmHg 77%
    06:00 +25°C° 0 mm 1 mps 727 mmHg 77%
    07:00 +25°C° 0 mm 1 mps 727 mmHg 76%
    08:00 +27°C° 0 mm 1 mps 728 mmHg 69%
    09:00 +29°C° 0 mm 2 mps 728 mmHg 62%
    10:00 +31°C° 0 mm 2 mps 728 mmHg 55%
    11:00 +32°C° 0 mm 1 mps 728 mmHg 52%
    12:00 +33°C° 0 mm 1 mps 727 mmHg 49%
    13:00 +34°C° 0 mm 1 mps 727 mmHg 47%
    14:00 +34°C° 0 mm 1 mps 726 mmHg 46%
    15:00 +32°C° 0 mm 0 mps 726 mmHg 46%
    16:00 +32°C° 0 mm 0 mps 726 mmHg 46%
    17:00 +30°C° 0 mm 0 mps 726 mmHg 52%
    18:00 +30°C° 0 mm 1 mps 726 mmHg 59%
    19:00 +28°C° 0 mm 1 mps 726 mmHg 65%
    20:00 +28°C° 0 mm 1 mps 726 mmHg 70%
    21:00 +27°C° 0 mm 1 mps 727 mmHg 76%
    22:00 +26°C° 0 mm 1 mps 727 mmHg 81%
    23:00 +26°C° 0 mm 1 mps 727 mmHg 82%

    30 June, Sunday

    Time Temperature Precipitation Wind Pressure Humidity
    00:00 +25°C° 0 mm 1 mps 727 mmHg 84%
    01:00 +25°C° 0 mm 1 mps 727 mmHg 85%
    02:00 +25°C° 0.1 mm 1 mps 727 mmHg 87%
    03:00 +24°C° 0.1 mm 1 mps 727 mmHg 89%
    04:00 +24°C° 0.1 mm 1 mps 727 mmHg 90%
    05:00 +24°C° 0.1 mm 1 mps 727 mmHg 89%
    06:00 +24°C° 0.1 mm 2 mps 728 mmHg 87%
    07:00 +25°C° 0.1 mm 2 mps 728 mmHg 86%
    08:00 +27°C° 0 mm 2 mps 728 mmHg 75%
    09:00 +29°C° 0 mm 2 mps 729 mmHg 65%
    10:00 +32°C° 0 mm 2 mps 729 mmHg 54%
    11:00 +33°C° 0 mm 1 mps 728 mmHg 49%
    12:00 +35°C° 0 mm 1 mps 728 mmHg 43%
    13:00 +37°C° 0 mm 1 mps 727 mmHg 37%
    14:00 +36°C° 0 mm 1 mps 727 mmHg 41%
    15:00 +35°C° 0 mm 1 mps 726 mmHg 44%
    16:00 +34°C° 0 mm 1 mps 725 mmHg 47%
    17:00 +32°C° 0 mm 1 mps 726 mmHg 52%
    18:00 +31°C° 0 mm 1 mps 726 mmHg 56%
    19:00 +30°C° 0 mm 1 mps 726 mmHg 61%
    20:00 +29°C° 0.5 mm 1 mps 726 mmHg 67%
    21:00 +28°C° 0.5 mm 1 mps 727 mmHg 72%
    22:00 +25°C° 0.5 mm 0 mps 727 mmHg 78%
    23:00 +27°C° 0.1 mm 1 mps 727 mmHg 80%

    1 July, Monday

    Time Temperature Precipitation Wind Pressure Humidity
    00:00 +26°C° 0.1 mm 1 mps 727 mmHg 82%
    01:00 +26°C° 0.1 mm 1 mps 727 mmHg 84%
    02:00 +25°C° 0.3 mm 1 mps 726 mmHg 86%
    03:00 +25°C° 0.3 mm 1 mps 726 mmHg 89%
    04:00 +24°C° 0.3 mm 1 mps 726 mmHg 91%
    05:00 +24°C° 0 mm 1 mps 726 mmHg 89%
    06:00 +25°C° 0 mm 1 mps 727 mmHg 87%
    07:00 +25°C° 0 mm 1 mps 727 mmHg 85%
    08:00 +27°C° 0 mm 1 mps 727 mmHg 75%
    09:00 +30°C° 0 mm 2 mps 728 mmHg 64%
    10:00 +32°C° 0 mm 2 mps 728 mmHg 54%
    11:00 +34°C° 0 mm 1 mps 727 mmHg 48%
    12:00 +36°C° 0 mm 1 mps 727 mmHg 42%
    13:00 +36°C° 0 mm 0 mps 726 mmHg 36%
    14:00 +35°C° 0 mm 0 mps 725 mmHg 38%
    15:00 +34°C° 0 mm 0 mps 725 mmHg 41%
    16:00 +33°C° 0 mm 0 mps 724 mmHg 43%
    17:00 +31°C° 0 mm 0 mps 724 mmHg 48%
    18:00 +30°C° 0 mm 0 mps 725 mmHg 52%
    19:00 +28°C° 0 mm 0 mps 725 mmHg 56%
    20:00 +29°C° 0.4 mm 1 mps 725 mmHg 65%
    21:00 +28°C° 0.4 mm 1 mps 726 mmHg 73%
    22:00 +26°C° 0.4 mm 2 mps 726 mmHg 81%
    23:00 +26°C° 0.5 mm 2 mps 726 mmHg 85%

    2 July, Tuesday

    Time Temperature Precipitation Wind Pressure Humidity
    00:00 +25°C° 0.5 mm 1 mps 726 mmHg 89%
    01:00 +24°C° 0.5 mm 1 mps 726 mmHg 93%
    02:00 +24°C° 0.3 mm 1 mps 726 mmHg 94%
    03:00 +24°C° 0.3 mm 1 mps 725 mmHg 94%
    04:00 +24°C° 0.3 mm 1 mps 725 mmHg 95%
    05:00 +24°C° 0 mm 1 mps 726 mmHg 94%
    06:00 +24°C° 0 mm 1 mps 726 mmHg 93%
    07:00 +24°C° 0 mm 2 mps 726 mmHg 92%
    08:00 +26°C° 0 mm 2 mps 726 mmHg 82%
    09:00 +28°C° 0 mm 2 mps 727 mmHg 73%
    10:00 +30°C° 0 mm 2 mps 727 mmHg 64%
    11:00 +32°C° 0 mm 2 mps 726 mmHg 58%
    12:00 +34°C° 0 mm 2 mps 726 mmHg 52%
    13:00 +35°C° 0 mm 1 mps 725 mmHg 46%
    14:00 +34°C° 0 mm 1 mps 725 mmHg 48%
    15:00 +34°C° 0 mm 1 mps 724 mmHg 50%
    16:00 +33°C° 0 mm 1 mps 724 mmHg 52%
    17:00 +31°C° 0.1 mm 1 mps 724 mmHg 59%
    18:00 +30°C° 0.1 mm 1 mps 724 mmHg 66%
    19:00 +28°C° 0.1 mm 1 mps 725 mmHg 73%
    20:00 +27°C° 0.2 mm 1 mps 725 mmHg 77%
    21:00 +27°C° 0.2 mm 1 mps 726 mmHg 81%
    22:00 +26°C° 0.2 mm 2 mps 726 mmHg 86%
    23:00 +25°C° 0 mm 2 mps 726 mmHg 88%
    Show more